Location: Kirchberg
(47.4114°N, 9.0398°E)
Time: 11:18:44
(UTC+00:00)

MOS 1 - Pass Details

Date: 03 March 2021
Orbit: 878 x 892 km, 99.1° (Epoch: 11 April)

Event Time Altitude Azimuth Distance (km) Brightness Sun altitude
Exits shadow 19:25:57 27° 167° (SSE) 1,624 5.4 -23.2°
Maximum altitude 19:29:10 86° 253° (WSW) 897 4.2 -23.8°
Drops below altitude 10° 19:34:54 10° 344° (NNW) 2,558 7.1 -24.7°
Sets 19:37:18 0° 345° (NNW) 3,500 7.9 -25.1°
